Flag for Central African Republic Weather past 2 weeks in Bimbo, Central African Republic

Now
82 °F

Partly sunny.


Feels Like: 88 °F
Forecast: 74 / 86 °F
Wind: 6 mph from Southeast

Location: Bangui Airport

Current Time: Sep 16, 2014 at 11:03:15 AM

Latest Report: Sep 16, 2014 at 10:00 AM


Visibility: 5 mi

Pressure: 29.95 "Hg

Humidity: 74%

Dew point: 73 °F

Location of BimboLocation

Historic Weather in Bimbo — Graph

°F

Bimbo temperature yesterday

Maximum temperature yesterday: 90 °F (at 3:00 PM)
Minimum temperature yesterday: 72 °F (at 8:00 PM)
Average temperature yesterday: 79 °F

Past Weeks' High & Low Weather Summary

 TemperatureHumidityPressure
High91 °F (Sep 3, 1:00 PM)100% (Sep 1, 11:00 PM)30.01 "Hg (Sep 1, 11:00 PM)
Low68 °F (Sep 10, 3:00 AM)49% (Sep 13, 3:00 PM)29.77 "Hg (Sep 3, 4:00 PM)
Average78 °F84%29.90 "Hg
* Reported Sep 1 10:00 AM — Sep 16 10:00 AM, Bimbo, Weather by CustomWeather, © 2014

Note: Actual official high and low records may vary slightly from our data, if they occured in-between our weather recording intervals... More about our weather records

Advertising

Bimbo weather history for previous 24 hours

 ConditionsComfort  
Time TempWeatherWind HumidityBarometerVisibility
10:00 AM
Sep 16
82 °FPartly sunny.6 mph74%29.95 "Hg5 mi
9:00 AM81 °FPartly sunny.5 mph74%29.95 "Hg5 mi
8:00 AM79 °FPartly sunny.No wind79%29.95 "HgN/A
7:00 AM72 °FPartly sunny.No wind100%29.92 "Hg5 mi
6:00 AM72 °FClear.No wind94%29.92 "Hg5 mi
5:00 AM70 °FClear.3 mph100%29.89 "Hg10 mi
4:00 AM72 °FClear.2 mph94%29.89 "Hg10 mi
3:00 AM70 °FClear.No wind100%29.89 "Hg10 mi
2:00 AM72 °FClear.No wind100%29.89 "Hg10 mi
1:00 AM72 °FClear.No wind100%29.89 "Hg4 mi
10:00 PM
Sep 15
72 °FOvercast.1 mph100%29.92 "Hg4 mi
9:00 PM72 °FOvercast.3 mph100%29.92 "Hg4 mi
8:00 PM72 °FThunderstorms. Mostly cloudy.7 mph100%29.89 "Hg4 mi
7:00 PM73 °FThunderstorms. Mostly cloudy.5 mph94%29.92 "Hg4 mi
5:00 PM73 °FThunderstorms. Mostly cloudy.13 mph89%29.86 "HgN/A
4:00 PM90 °FBroken clouds.1 mph59%29.80 "HgN/A
3:00 PM90 °FPartly sunny.1 mph59%29.80 "HgN/A
2:00 PM86 °FPartly sunny.2 mph66%29.83 "HgN/A
1:00 PM88 °FPartly sunny.1 mph62%29.86 "HgN/A
12:00 PM86 °FBroken clouds.3 mph66%29.92 "HgN/A
11:00 AM86 °FBroken clouds.6 mph70%29.92 "HgN/A
Weather by CustomWeather, © 2014

See weather overviewHow to use our weather pages